Location: *
(2.5500°S, 65.9667°W)
Time: 06:58:07
(UTC+00:00)

Explorer 7 - Pass Details

Date: 18 April 2024
Orbit: 467 x 625 km, 50.3° (Epoch: 26 May)

Event Time Altitude Azimuth Distance (km) Brightness Sun altitude
Rises 01:18:34 0° 324° (NW) 2,640 - -43.5°
Reaches altitude 10° 01:20:49 10° 325° (NW) 1,728 - -44.0°
Maximum altitude 01:24:43 84° 51° (NE) 501 - -45.0°
Drops below altitude 10° 01:28:28 10° 142° (SE) 1,657 - -45.9°
Sets 01:30:35 0° 142° (SE) 2,522 - -46.4°
